EW9368 Weather Reports


time (UTC)temp
C
wind
direction
speed
KPH
gust
KPH
rain 1hr
cm
rain 24hr
cm
rain mn
cm
humidity
%
barometer
mb
20260507083035 0 205 0.0 4.8 0.00 0.00 0.00 82 1011.3
20260507081534 -1 187 0.0 4.8 0.00 0.00 0.00 83 1011.4
20260507080036 -1 167 0.0 4.8 0.00 0.00 0.00 85 1011.4
20260507074532 -1 194 0.0 3.2 0.00 0.00 0.00 84 1011.4
20260507073030 -1 171 0.0 6.4 0.00 0.00 0.00 82 1011.4
20260507071527 -1 172 1.6 9.7 0.00 0.00 0.00 80 1011.6
20260507070026 -1 164 3.2 8.0 0.00 0.00 0.00 78 1011.8
20260507064519 0 150 3.2 6.4 0.00 0.00 0.00 74 1011.9
20260507063026 1 172 3.2 6.4 0.00 0.00 0.00 69 1012.0
20260507061512 1 124 8.0 16.1 0.00 0.00 0.00 65 1012.1
20260507060022 2 146 4.8 12.9 0.00 0.00 0.00 63 1012.2
20260507054506 2 132 3.2 12.9 0.00 0.00 0.00 63 1012.1
20260507053006 2 145 8.0 16.1 0.00 0.00 0.00 62 1012.2
20260507051501 3 130 4.8 12.9 0.00 0.00 0.00 61 1012.4
20260507044559 3 88 6.4 16.1 0.00 0.00 0.00 60 1012.6
20260507043055 3 115 8.0 11.3 0.00 0.00 0.00 60 1012.8
20260507041554 3 103 4.8 12.9 0.00 0.00 0.00 58 1012.8
20260507040053 3 92 11.3 19.3 0.00 0.00 0.00 58 1013.1
20260507034552 3 101 11.3 16.1 0.00 0.00 0.00 58 1013.2
20260507033051 3 82 11.3 14.5 0.00 0.00 0.00 59 1013.4
20260507031554 3 99 3.2 6.4 0.00 0.00 0.00 58 1013.5
20260507030051 4 95 11.3 16.1 0.00 0.00 0.00 57 1013.4
20260507024550 5 88 8.0 16.1 0.00 0.00 0.00 54 1013.2
20260507023051 5 83 14.5 19.3 0.00 0.00 0.00 52 1013.1
20260507021548 6 92 14.5 17.7 0.00 0.00 0.00 49 1013.1
20260507020051 7 72 12.9 16.1 0.00 0.00 0.00 47 1013.1
20260507014552 7 74 8.0 12.9 0.00 0.00 0.00 47 1013.1
20260507013058 7 78 6.4 8.0 0.00 0.00 0.00 46 1013.1
20260507011547 8 75 6.4 11.3 0.00 0.00 0.00 45 1013.0
20260507010055 8 74 6.4 12.9 0.00 0.00 0.00 42 1013.2
20260507004547 9 72 8.0 14.5 0.00 0.00 0.00 41 1013.2
20260507003043 10 64 4.8 11.3 0.00 0.00 0.00 39 1013.3
20260507001544 10 338 0.0 8.0 0.00 0.00 0.00 40 1013.4
20260507000041 10 287 4.8 16.1 0.00 0.00 0.00 39 1013.5
20260506234538 10 296 6.4 17.7 0.00 0.00 0.00 40 1013.6
20260506233054 10 303 1.6 8.0 0.00 0.00 0.00 38 1013.8
20260506231539 10 10 1.6 14.5 0.00 0.00 0.00 41 1013.9
20260506230033 11 268 6.4 14.5 0.00 0.00 0.00 35 1013.9
20260506224531 10 300 4.8 19.3 0.00 0.00 0.00 37 1014.1
20260506223029 10 280 4.8 16.1 0.00 0.00 0.00 40 1014.2
20260506221528 10 40 4.8 14.5 0.00 0.00 0.00 37 1014.3
20260506220030 10 300 4.8 14.5 0.00 0.00 0.00 41 1014.4
20260506214525 10 336 6.4 17.7 0.00 0.00 0.00 39 1014.6
20260506213026 10 294 6.4 12.9 0.00 0.00 0.00 40 1014.7
20260506211526 10 72 4.8 19.3 0.00 0.00 0.00 38 1015.0
20260506210026 9 296 11.3 20.9 0.00 0.00 0.00 41 1015.1
20260506204515 9 38 6.4 20.9 0.00 0.00 0.00 41 1015.2
20260506203012 9 293 6.4 17.7 0.00 0.00 0.00 42 1015.4
20260506201511 8 355 6.4 22.5 0.00 0.00 0.00 42 1015.6
20260506200025 8 298 12.9 24.1 0.00 0.00 0.00 42 1015.7
20260506194508 9 279 6.4 20.9 0.00 0.00 0.00 43 1016.0
20260506193007 8 313 8.0 27.4 0.00 0.00 0.00 44 1016.1
20260506191504 8 307 12.9 24.1 0.00 0.00 0.00 44 1016.2
20260506190002 8 256 11.3 22.5 0.00 0.00 0.00 45 1016.3
20260506184620 8 323 8.0 20.9 0.00 0.00 0.00 45 1016.3
20260506183059 7 309 8.0 22.5 0.00 0.00 0.00 46 1016.6
20260506181557 7 17 6.4 24.1 0.00 0.00 0.00 47 1016.8
20260506180055 7 313 8.0 20.9 0.00 0.00 0.00 45 1017.0
20260506174552 7 302 9.7 33.8 0.00 0.00 0.00 46 1017.1
20260506173104 6 271 16.1 24.1 0.00 0.00 0.00 48 1017.4
20260506171553 6 326 11.3 29.0 0.00 0.00 0.00 49 1017.5
20260506170058 7 296 4.8 20.9 0.00 0.00 0.00 50 1017.7
20260506164603 6 307 8.0 27.4 0.00 0.00 0.00 50 1017.9
20260506163045 6 304 11.3 22.5 0.00 0.00 0.00 49 1018.0
20260506161542 5 297 8.0 19.3 0.00 0.00 0.00 51 1018.0
20260506160049 5 254 17.7 25.7 0.00 0.00 0.00 50 1018.0
20260506154549 5 301 6.4 14.5 0.00 0.00 0.00 51 1018.1
20260506153037 5 280 4.8 20.9 0.00 0.00 0.00 51 1018.1
20260506151536 5 339 3.2 12.9 0.00 0.00 0.00 54 1018.1
20260506150036 5 283 3.2 12.9 0.00 0.00 0.00 54 1018.2
20260506144532 5 293 6.4 14.5 0.00 0.00 0.00 55 1018.3
20260506143034 4 311 4.8 12.9 0.00 0.00 0.00 59 1018.3
20260506141525 3 288 1.6 4.8 0.00 0.00 0.00 62 1018.4
20260506140021 3 260 0.0 6.4 0.00 0.00 0.00 70 1018.4
20260506134517 2 260 3.2 6.4 0.00 0.00 0.00 76 1018.4
20260506133014 2 268 6.4 12.9 0.00 0.00 0.00 77 1018.3
20260506131516 1 275 6.4 14.5 0.00 0.00 0.00 76 1018.3
20260506130014 1 271 6.4 11.3 0.00 0.00 0.00 78 1018.2
20260506124505 1 275 3.2 6.4 0.00 0.00 0.00 81 1018.1
20260506123003 0 265 1.6 6.4 0.00 0.00 0.00 82 1017.9
20260506121613 0 265 0.0 1.6 0.00 0.00 0.00 82 1017.6
20260506120120 0 265 3.2 6.4 0.00 0.00 0.00 84 1017.4
20260506114555 0 319 0.0 0.0 0.00 0.00 0.00 84 1017.3
20260506113058 0 319 0.0 3.2 0.00 0.00 0.00 85 1017.3
20260506111553 0 319 0.0 4.8 0.00 0.00 0.00 85 1017.3
20260506110054 0 319 0.0 1.6 0.00 0.00 0.00 84 1017.2
20260506104552 0 319 0.0 3.2 0.00 0.00 0.00 84 1017.1
20260506103053 0 319 0.0 4.8 0.00 0.00 0.00 84 1017.2
20260506101550 0 319 0.0 0.0 0.00 0.00 0.00 84 1017.3
20260506100049 0 319 0.0 0.0 0.00 0.00 0.00 84 1017.2
20260506094549 0 319 0.0 0.0 0.00 0.00 0.00 82 1017.2
20260506093051 0 319 0.0 3.2 0.00 0.00 0.00 82 1017.2
20260506091546 0 319 1.6 6.4 0.00 0.00 0.00 81 1017.1
20260506090045 0 319 0.0 3.2 0.00 0.00 0.00 80 1017.1
20260506084543 0 319 0.0 3.2 0.00 0.00 0.00 79 1016.9